SWR8T LSZH-KORD

Flight info

Callsign SWR8T
Flight time N/A
Altitude 34000
Route VEBIT T10 TORPA DCT REKLA DCT RLP DCT ROTSI DCT KOTUN DCT AMAXA DCT VESAN DCT RATUK DCT SOVAT/N0450F360 L613 SANDY DCT OKSAW DCT TEWXI DCT VATRY DCT TORLU DCT DOGAL/M079F380 DCT 54N020W 53N030W 52N040W 51N050W DCT ALLRY/N0450F380 DCT QUBIS/N0464F400 DCT OXASA DCT ODAXY WYNDE3
Aircraft A343/H-SDE2E3FGHIJ4J5M1RWXY/LB1D1

Departure

Time 2026-04-30 21:02
Airport Zürich Airport (LSZH)

Arrival

Time N/A
Airport Chicago O'Hare International Airport (KORD)
Time Latitude Longitude Altitude Speed Heading
2026-04-30 21:02 47.45856 8.51519 6296 ft 267 kts 257°
2026-04-30 21:02 47.45423 8.48818 6930 ft 274 kts 251°
2026-04-30 21:03 47.44568 8.46277 7550 ft 280 kts 235°
2026-04-30 21:03 47.43453 8.43923 8250 ft 283 kts 233°
2026-04-30 21:04 47.42024 8.40990 9126 ft 288 kts 234°
2026-04-30 21:05 47.40862 8.38571 9857 ft 290 kts 234°
2026-04-30 21:05 47.39695 8.36120 10517 ft 295 kts 234°
2026-04-30 21:05 47.38570 8.33484 10802 ft 312 kts 240°
2026-04-30 21:05 47.37515 8.30586 11031 ft 330 kts 242°
2026-04-30 21:06 47.36425 8.27504 11285 ft 346 kts 242°
2026-04-30 21:06 47.35299 8.24323 11648 ft 357 kts 242°
2026-04-30 21:06 47.34141 8.21045 12179 ft 363 kts 242°
2026-04-30 21:06 47.32956 8.17711 12669 ft 371 kts 242°
2026-04-30 21:07 47.31743 8.14307 13110 ft 380 kts 242°
2026-04-30 21:07 47.30518 8.10849 13774 ft 381 kts 242°
2026-04-30 21:07 47.29292 8.07404 14501 ft 380 kts 242°
2026-04-30 21:07 47.28081 8.03906 15022 ft 385 kts 245°
2026-04-30 21:08 47.27288 8.00123 15504 ft 391 kts 262°
2026-04-30 21:08 47.27211 7.96114 16033 ft 393 kts 274°
2026-04-30 21:08 47.27458 7.92087 16555 ft 397 kts 278°
2026-04-30 21:08 47.27854 7.88039 17086 ft 401 kts 280°
2026-04-30 21:09 47.28307 7.83969 17611 ft 404 kts 281°
2026-04-30 21:09 47.28767 7.79861 18136 ft 408 kts 281°
2026-04-30 21:09 47.29213 7.75710 18650 ft 412 kts 280°
2026-04-30 21:09 47.29641 7.71515 19115 ft 415 kts 280°
2026-04-30 21:10 47.30053 7.67288 19618 ft 418 kts 279°
2026-04-30 21:10 47.30594 7.63074 20115 ft 418 kts 287°
2026-04-30 21:10 47.31353 7.58938 20620 ft 420 kts 288°
2026-04-30 21:10 47.32182 7.54849 21095 ft 422 kts 289°
2026-04-30 21:11 47.33065 7.50721 21581 ft 424 kts 290°
2026-04-30 21:11 47.33973 7.46575 22039 ft 426 kts 290°
2026-04-30 21:11 47.34904 7.42350 22478 ft 429 kts 290°
2026-04-30 21:11 47.35827 7.38152 22918 ft 431 kts 289°
2026-04-30 21:12 47.36734 7.33992 23329 ft 434 kts 289°
2026-04-30 21:12 47.37656 7.29739 23774 ft 436 kts 289°
2026-04-30 21:12 47.38578 7.25459 24138 ft 439 kts 289°
2026-04-30 21:12 47.39503 7.21148 24493 ft 441 kts 289°
2026-04-30 21:13 47.40408 7.16823 24831 ft 444 kts 287°
2026-04-30 21:13 47.41152 7.12385 25162 ft 446 kts 285°
2026-04-30 21:13 47.41849 7.07913 25486 ft 449 kts 284°
2026-04-30 21:13 47.42524 7.03399 25820 ft 451 kts 283°
2026-04-30 21:14 47.43187 6.98864 26125 ft 453 kts 283°
2026-04-30 21:14 47.43848 6.94303 26447 ft 455 kts 283°
2026-04-30 21:14 47.44509 6.89722 26763 ft 457 kts 283°
2026-04-30 21:14 47.44950 6.86674 26971 ft 458 kts 283°
2026-04-30 21:15 47.45617 6.82055 27272 ft 460 kts 283°
2026-04-30 21:15 47.46286 6.77417 27572 ft 462 kts 283°
2026-04-30 21:15 47.46959 6.72753 27876 ft 464 kts 283°
2026-04-30 21:15 47.47626 6.68076 28163 ft 466 kts 282°
2026-04-30 21:16 47.48100 6.63332 28486 ft 467 kts 277°
2026-04-30 21:16 47.48489 6.58556 28786 ft 469 kts 277°
2026-04-30 21:16 47.48850 6.53755 29065 ft 471 kts 276°
2026-04-30 21:16 47.49195 6.48937 29318 ft 472 kts 276°
2026-04-30 21:17 47.49529 6.44161 29586 ft 474 kts 276°
2026-04-30 21:17 47.49867 6.39301 29853 ft 476 kts 276°
2026-04-30 21:17 47.50206 6.34412 30110 ft 477 kts 276°
2026-04-30 21:17 47.50545 6.29534 30354 ft 479 kts 276°
2026-04-30 21:18 47.50886 6.24619 30550 ft 481 kts 276°
2026-04-30 21:18 47.51227 6.19689 30752 ft 482 kts 276°
2026-04-30 21:18 47.51567 6.14745 30925 ft 484 kts 276°
2026-04-30 21:18 47.51907 6.09773 31108 ft 486 kts 276°
2026-04-30 21:19 47.52246 6.04780 31301 ft 488 kts 276°
2026-04-30 21:19 47.52583 5.99779 31488 ft 489 kts 276°
2026-04-30 21:19 47.52941 5.94775 31741 ft 489 kts 278°
2026-04-30 21:19 47.53631 5.89850 31996 ft 488 kts 287°
2026-04-30 21:20 47.54809 5.85157 32218 ft 486 kts 297°
2026-04-30 21:20 47.56492 5.80824 32413 ft 486 kts 307°
2026-04-30 21:20 47.58601 5.76920 32645 ft 484 kts 312°
2026-04-30 21:20 47.60829 5.73190 32904 ft 483 kts 314°
2026-04-30 21:21 47.63075 5.69572 33159 ft 483 kts 315°
2026-04-30 21:21 47.65366 5.65930 33396 ft 483 kts 315°
2026-04-30 21:21 47.69937 5.58645 33864 ft 483 kts 315°
2026-04-30 21:22 47.72217 5.54979 34072 ft 482 kts 315°
2026-04-30 21:22 47.78213 5.45247 34205 ft 473 kts 314°
2026-04-30 21:23 47.79410 5.43294 34207 ft 473 kts 314°
2026-04-30 21:23 47.86067 5.32420 34205 ft 474 kts 314°
2026-04-30 21:24 47.90498 5.25158 34209 ft 474 kts 314°
2026-04-30 21:24 47.94937 5.17875 34206 ft 474 kts 314°
2026-04-30 21:25 48.01547 5.06969 34206 ft 475 kts 313°
2026-04-30 21:26 48.08201 4.95949 34208 ft 476 kts 313°
2026-04-30 21:27 48.14852 4.84889 34207 ft 476 kts 313°
2026-04-30 21:27 48.19276 4.77508 34202 ft 476 kts 313°
2026-04-30 21:28 48.25911 4.66399 34206 ft 477 kts 313°
2026-04-30 21:29 48.32553 4.55239 34208 ft 478 kts 313°
2026-04-30 21:30 48.43572 4.36598 34216 ft 478 kts 313°
2026-04-30 21:31 48.54599 4.17818 34224 ft 479 kts 312°
2026-04-30 21:32 48.61212 4.06491 34224 ft 479 kts 312°
2026-04-30 21:32 48.65611 3.98929 34234 ft 479 kts 312°
2026-04-30 21:33 48.72306 3.87722 34231 ft 478 kts 319°
2026-04-30 21:34 48.77537 3.81529 34220 ft 477 kts 325°
2026-04-30 21:34 48.85607 3.72710 34229 ft 477 kts 326°
2026-04-30 21:35 48.90998 3.66838 34217 ft 477 kts 325°
2026-04-30 21:35 48.96377 3.60936 34226 ft 477 kts 325°
2026-04-30 21:36 49.01752 3.55009 34231 ft 477 kts 325°
2026-04-30 21:37 49.12485 3.43120 34229 ft 479 kts 325°
2026-04-30 21:37 49.17875 3.37128 34231 ft 479 kts 325°
2026-04-30 21:38 49.23265 3.31118 34220 ft 479 kts 325°
2026-04-30 21:38 49.28686 3.25057 34226 ft 479 kts 324°
2026-04-30 21:39 49.34027 3.19069 34228 ft 479 kts 324°
2026-04-30 21:39 49.39401 3.13027 34220 ft 479 kts 324°
2026-04-30 21:40 49.44771 3.06974 34234 ft 480 kts 324°
2026-04-30 21:40 49.50151 3.00891 34232 ft 480 kts 324°
2026-04-30 21:41 49.55516 2.94810 34229 ft 479 kts 324°
2026-04-30 21:41 49.60882 2.88709 34231 ft 479 kts 324°
2026-04-30 21:42 49.66238 2.82602 34234 ft 479 kts 324°
2026-04-30 21:42 49.71598 2.76475 34230 ft 479 kts 324°
2026-04-30 21:43 49.76948 2.70341 34241 ft 478 kts 324°
2026-04-30 21:43 49.82324 2.64273 34235 ft 479 kts 325°
2026-04-30 21:44 49.87760 2.58283 34238 ft 479 kts 325°
2026-04-30 21:44 49.93193 2.52276 34233 ft 479 kts 325°
2026-04-30 21:45 49.98580 2.46273 34237 ft 479 kts 324°
2026-04-30 21:45 50.03983 2.40224 34238 ft 479 kts 324°
2026-04-30 21:46 50.09386 2.34155 34233 ft 479 kts 324°
2026-04-30 21:46 50.14785 2.28075 34246 ft 479 kts 324°
2026-04-30 21:47 50.20191 2.21970 34241 ft 480 kts 324°
2026-04-30 21:47 50.25591 2.15855 34235 ft 479 kts 324°
2026-04-30 21:48 50.30990 2.09723 34233 ft 479 kts 324°
2026-04-30 21:48 50.36389 2.03574 34231 ft 479 kts 324°
2026-04-30 21:49 50.41633 1.97138 34227 ft 479 kts 319°
2026-04-30 21:49 50.46588 1.90157 34231 ft 478 kts 317°
2026-04-30 21:50 50.51535 1.83170 34215 ft 479 kts 317°
2026-04-30 21:50 50.56504 1.76289 34214 ft 479 kts 318°
2026-04-30 21:51 50.61531 1.69381 34214 ft 480 kts 318°
2026-04-30 21:51 50.66556 1.62466 34222 ft 479 kts 318°
2026-04-30 21:52 50.71569 1.55536 34231 ft 479 kts 318°
2026-04-30 21:52 50.76580 1.48579 34241 ft 480 kts 318°
2026-04-30 21:53 50.81614 1.41581 34394 ft 485 kts 318°
2026-04-30 21:53 50.84152 1.38043 34505 ft 487 kts 318°
2026-04-30 21:53 50.86700 1.34484 34651 ft 488 kts 318°
2026-04-30 21:54 50.89243 1.30927 34824 ft 488 kts 317°
2026-04-30 21:54 50.91783 1.27368 35008 ft 487 kts 317°
2026-04-30 21:54 50.94322 1.23807 35214 ft 487 kts 317°
2026-04-30 21:54 50.96857 1.20247 35414 ft 486 kts 317°
2026-04-30 21:55 50.99384 1.16691 35609 ft 485 kts 317°
2026-04-30 21:55 51.01907 1.13137 35781 ft 485 kts 317°
2026-04-30 21:55 51.04326 1.09415 35960 ft 483 kts 310°
2026-04-30 21:55 51.06361 1.05174 36122 ft 481 kts 300°
2026-04-30 21:56 51.09241 0.95621 36214 ft 477 kts 290°
2026-04-30 21:56 51.11658 0.85844 36213 ft 473 kts 289°
2026-04-30 21:57 51.13995 0.76075 36204 ft 472 kts 289°
2026-04-30 21:57 51.16350 0.66297 36193 ft 473 kts 289°
2026-04-30 21:58 51.18715 0.56528 36184 ft 473 kts 289°
2026-04-30 21:58 51.21065 0.46806 36192 ft 473 kts 289°
2026-04-30 21:59 51.23420 0.37017 36184 ft 472 kts 289°
2026-04-30 22:00 51.26934 0.22319 36192 ft 472 kts 289°
2026-04-30 22:00 51.30430 0.07592 36205 ft 473 kts 289°
2026-04-30 22:01 51.32751 -0.02239 36222 ft 472 kts 288°
2026-04-30 22:01 51.34673 -0.10413 36220 ft 472 kts 288°
2026-04-30 22:02 51.36979 -0.20257 36217 ft 472 kts 288°
2026-04-30 22:02 51.39273 -0.30100 36213 ft 472 kts 288°
2026-04-30 22:03 51.41564 -0.39980 36200 ft 472 kts 288°
2026-04-30 22:03 51.43807 -0.49693 36214 ft 472 kts 288°
2026-04-30 22:04 51.46080 -0.59580 36214 ft 472 kts 288°
2026-04-30 22:05 51.49313 -0.73726 36197 ft 472 kts 288°
2026-04-30 22:05 51.51564 -0.83629 36211 ft 472 kts 288°
2026-04-30 22:06 51.53646 -0.92833 36208 ft 472 kts 288°
2026-04-30 22:06 51.56991 -1.07707 36184 ft 471 kts 287°
2026-04-30 22:07 51.59209 -1.17620 36185 ft 471 kts 287°
2026-04-30 22:07 51.61422 -1.27562 36181 ft 471 kts 287°
2026-04-30 22:08 51.63625 -1.37509 36178 ft 471 kts 287°
2026-04-30 22:08 51.65819 -1.47465 36199 ft 471 kts 287°
2026-04-30 22:09 51.67981 -1.57317 36192 ft 469 kts 287°
2026-04-30 22:09 51.70176 -1.67206 36180 ft 470 kts 290°
2026-04-30 22:10 51.72965 -1.76761 36187 ft 471 kts 294°
2026-04-30 22:10 51.75886 -1.86221 36182 ft 471 kts 294°
2026-04-30 22:11 51.80282 -2.00407 36189 ft 470 kts 294°
2026-04-30 22:12 51.82745 -2.10154 36184 ft 467 kts 289°
2026-04-30 22:12 51.85038 -2.19985 36185 ft 467 kts 288°
2026-04-30 22:13 51.87284 -2.29783 36187 ft 467 kts 288°
2026-04-30 22:13 51.89535 -2.39635 36185 ft 467 kts 288°
2026-04-30 22:14 51.91786 -2.49501 36181 ft 467 kts 288°
2026-04-30 22:14 51.94028 -2.59367 36169 ft 466 kts 288°
2026-04-30 22:15 51.96258 -2.69225 36169 ft 466 kts 287°
2026-04-30 22:15 51.98481 -2.79101 36169 ft 466 kts 287°
2026-04-30 22:16 52.00695 -2.88982 36196 ft 466 kts 287°
2026-04-30 22:17 52.05094 -3.08754 36161 ft 465 kts 287°
2026-04-30 22:17 52.08370 -3.23606 36161 ft 465 kts 287°
2026-04-30 22:18 52.11616 -3.38423 36155 ft 465 kts 287°
2026-04-30 22:19 52.14857 -3.53323 36153 ft 466 kts 286°
2026-04-30 22:20 52.18084 -3.68271 36143 ft 467 kts 286°
2026-04-30 22:20 52.21294 -3.83248 36138 ft 467 kts 286°
2026-04-30 22:21 52.23422 -3.93240 36136 ft 466 kts 286°
2026-04-30 22:21 52.25541 -4.03235 36128 ft 466 kts 286°
2026-04-30 22:22 52.27652 -4.13246 36137 ft 467 kts 286°
2026-04-30 22:22 52.29758 -4.23282 36120 ft 467 kts 285°
2026-04-30 22:23 52.31845 -4.33275 36132 ft 467 kts 285°
2026-04-30 22:23 52.33934 -4.43327 36117 ft 467 kts 285°
2026-04-30 22:24 52.36012 -4.53380 36120 ft 466 kts 285°
2026-04-30 22:24 52.38079 -4.63427 36123 ft 466 kts 285°
2026-04-30 22:25 52.40137 -4.73482 36125 ft 466 kts 285°
2026-04-30 22:25 52.42189 -4.83562 36125 ft 466 kts 285°
2026-04-30 22:26 52.45250 -4.98693 36146 ft 466 kts 285°
2026-04-30 22:27 52.47270 -5.08744 36127 ft 468 kts 285°
2026-04-30 22:27 52.50322 -5.24024 36126 ft 468 kts 285°
2026-04-30 22:28 52.53330 -5.39201 36123 ft 468 kts 284°
2026-04-30 22:29 52.57436 -5.59503 36126 ft 469 kts 287°
2026-04-30 22:31 52.65169 -5.94834 36119 ft 468 kts 286°
2026-04-30 22:32 52.70563 -6.20192 36116 ft 471 kts 285°
2026-04-30 22:33 52.75931 -6.45731 36108 ft 471 kts 285°
2026-04-30 22:35 52.81251 -6.71368 36099 ft 474 kts 285°
2026-04-30 22:36 52.86545 -6.97206 36095 ft 474 kts 285°
2026-04-30 22:37 52.90730 -7.17867 36092 ft 476 kts 284°
2026-04-30 22:38 52.94908 -7.38729 36084 ft 477 kts 284°
2026-04-30 22:39 52.98017 -7.54391 36081 ft 477 kts 284°
2026-04-30 22:40 53.03526 -7.86051 36085 ft 477 kts 281°
2026-04-30 22:41 53.07954 -8.12659 36076 ft 477 kts 281°
2026-04-30 22:43 53.13248 -8.44828 36075 ft 482 kts 281°
2026-04-30 22:44 53.16740 -8.66390 36075 ft 482 kts 280°
2026-04-30 22:45 53.21915 -8.98888 36075 ft 486 kts 280°
2026-04-30 22:47 53.27032 -9.31638 36073 ft 487 kts 279°
2026-04-30 22:48 53.30414 -9.53652 36061 ft 489 kts 279°
2026-04-30 22:49 53.35134 -9.84886 36063 ft 489 kts 279°
2026-04-30 22:51 53.40045 -10.18063 36050 ft 490 kts 279°
2026-04-30 22:52 53.42471 -10.34707 36055 ft 490 kts 278°
2026-04-30 22:53 53.45676 -10.56983 36054 ft 492 kts 279°
2026-04-30 22:53 53.48058 -10.73745 36056 ft 492 kts 279°
2026-04-30 22:55 53.51973 -11.01704 36057 ft 492 kts 278°
2026-04-30 22:56 53.55060 -11.24123 36059 ft 492 kts 278°
2026-04-30 22:57 53.58846 -11.52102 36066 ft 492 kts 279°
2026-04-30 22:58 53.61838 -11.74587 36058 ft 492 kts 279°
2026-04-30 22:59 53.66243 -12.08355 36067 ft 491 kts 279°